FW0019 Weather Reports


time (UTC)temp
F
wind
direction
speed
knots
gust
knots
rain 1hr
in
rain 24hr
in
rain mn
in
humidity
%
barometer
mb
20260507233058 70 140 7.0 13.9 0.00 0.00 0.00 53 879.0
20260507231558 71 96 6.1 13.0 0.00 0.00 0.00 52 879.0
20260507230057 71 153 9.6 13.9 0.00 0.00 0.00 49 879.1
20260507224555 71 102 7.0 14.8 0.00 0.00 0.00 49 879.1
20260507223055 71 114 7.0 13.9 0.00 0.00 0.00 49 879.2
20260507221554 71 150 7.8 13.9 0.00 0.00 0.00 49 879.2
20260507220052 71 117 9.6 15.6 0.00 0.00 0.00 48 879.4
20260507214555 71 126 7.8 13.0 0.00 0.00 0.00 46 879.7
20260507213056 71 116 8.7 13.9 0.00 0.00 0.00 49 879.7
20260507211553 72 161 7.8 12.2 0.00 0.00 0.00 49 879.7
20260507210048 72 170 7.0 13.0 0.00 0.00 0.00 50 879.9
20260507204548 72 92 9.6 13.9 0.00 0.00 0.00 44 880.0
20260507203048 72 104 7.8 13.9 0.00 0.00 0.00 45 880.0
20260507201550 72 165 7.8 11.3 0.00 0.00 0.00 49 880.0
20260507200047 72 98 3.5 11.3 0.00 0.00 0.00 49 880.0
20260507194547 74 168 7.0 11.3 0.00 0.00 0.00 45 880.2
20260507193046 75 100 7.8 11.3 0.00 0.00 0.00 45 880.3
20260507191545 75 273 4.3 10.4 0.00 0.00 0.00 26 880.5
20260507190043 75 292 1.7 8.7 0.00 0.00 0.00 28 880.5
20260507184542 75 244 3.5 11.3 0.00 0.00 0.00 28 880.6
20260507183050 74 350 3.5 7.8 0.00 0.00 0.00 24 880.8
20260507181539 74 279 5.2 10.4 0.00 0.00 0.00 32 880.8
20260507180047 73 268 9.6 14.8 0.00 0.00 0.00 32 880.8
20260507174535 73 275 7.0 13.0 0.00 0.00 0.00 33 880.9
20260507173044 72 277 8.7 13.0 0.00 0.00 0.00 37 880.9
20260507171533 72 296 5.2 12.2 0.00 0.00 0.00 33 880.8
20260507170044 72 289 9.6 13.9 0.00 0.00 0.00 32 880.8
20260507164530 72 284 5.2 10.4 0.00 0.00 0.00 31 880.7
20260507163029 72 285 7.8 11.3 0.00 0.00 0.00 33 880.8
20260507161528 72 285 4.3 8.7 0.00 0.00 0.00 33 880.8
20260507160026 70 290 2.6 6.1 0.00 0.00 0.00 33 880.7
20260507154519 66 294 1.7 3.5 0.00 0.00 0.00 43 880.7
20260507153015 61 290 0.0 3.5 0.00 0.00 0.00 70 880.7
20260507151516 58 290 1.7 3.5 0.00 0.00 0.00 72 880.7
20260507150007 55 290 2.6 4.3 0.00 0.01 0.00 76 880.7
20260507144504 53 284 3.5 4.3 0.00 0.01 0.00 80 880.7
20260507143002 50 281 3.5 4.3 0.00 0.01 0.00 81 880.6
20260507141605 48 281 4.3 5.2 0.00 0.01 0.00 85 880.4
20260507140103 46 277 4.3 6.1 0.00 0.01 0.00 87 880.4
20260507134558 44 289 4.3 6.1 0.00 0.01 0.00 90 880.5
20260507133059 43 283 4.3 6.1 0.00 0.01 0.00 92 880.4
20260507131558 41 289 2.6 4.3 0.00 0.01 0.00 92 880.3
20260507130105 40 294 4.3 5.2 0.00 0.01 0.00 92 880.1
20260507124558 40 306 2.6 5.2 0.00 0.01 0.00 91 880.0
20260507123055 41 288 3.5 5.2 0.00 0.01 0.00 91 879.9
20260507121555 41 294 2.6 5.2 0.00 0.01 0.00 91 879.9
20260507120047 41 291 2.6 6.1 0.00 0.01 0.00 90 879.9
20260507114545 41 298 1.7 3.5 0.00 0.01 0.00 90 879.9
20260507113046 42 298 2.6 4.3 0.00 0.01 0.00 89 879.8
20260507111541 42 298 1.7 4.3 0.00 0.01 0.00 90 879.9
20260507110049 42 298 0.9 3.5 0.00 0.01 0.00 89 879.9
20260507104546 43 298 1.7 3.5 0.00 0.01 0.00 89 879.8
20260507103055 43 302 2.6 4.3 0.00 0.01 0.00 89 879.9
20260507101538 43 297 1.7 3.5 0.00 0.01 0.00 89 879.9
20260507100031 44 292 2.6 5.2 0.00 0.01 0.00 88 880.0
20260507094531 44 118 2.6 4.3 0.00 0.01 0.00 86 880.1
20260507093025 45 118 1.7 3.5 0.00 0.01 0.00 85 880.1
20260507091534 46 118 0.9 2.6 0.00 0.01 0.00 84 880.1
20260507090019 46 118 0.0 2.6 0.00 0.01 0.00 82 880.2
20260507084534 48 118 0.0 0.0 0.00 0.01 0.00 81 880.4
20260507083012 49 118 0.0 0.0 0.00 0.01 0.00 78 880.4
20260507081510 50 118 0.0 1.7 0.00 0.01 0.00 76 880.4
20260507080004 52 118 0.0 1.7 0.00 0.01 0.00 71 880.5
20260507074500 54 118 0.9 4.3 0.00 0.01 0.00 61 880.5
20260507073102 53 150 3.5 5.2 0.00 0.01 0.00 61 880.5
20260507071605 53 142 3.5 5.2 0.00 0.01 0.00 64 880.6
20260507070105 52 138 1.7 5.2 0.00 0.01 0.01 68 880.7
20260507064557 52 136 1.7 7.0 0.00 0.01 0.01 71 880.7
20260507063053 52 154 0.0 0.0 0.00 0.01 0.01 74 880.7
20260507061553 53 154 0.0 4.3 0.00 0.01 0.01 69 880.8
20260507060050 53 135 2.6 4.3 0.00 0.01 0.01 69 880.7
20260507054609 54 140 2.6 6.1 0.00 0.01 0.01 67 880.8
20260507053102 54 100 3.5 5.2 0.00 0.01 0.01 68 880.8
20260507051556 53 114 3.5 7.0 0.00 0.01 0.01 72 880.8
20260507050054 53 142 2.6 5.2 0.00 0.01 0.01 76 880.7
20260507044554 52 158 1.7 4.3 0.00 0.01 0.01 78 880.8
20260507043047 53 134 2.6 5.2 0.00 0.01 0.01 77 880.7
20260507041559 53 136 2.6 4.3 0.00 0.01 0.01 75 880.7
20260507040045 54 113 3.5 7.8 0.00 0.01 0.01 73 880.6
20260507034546 53 140 2.6 7.0 0.00 0.01 0.01 75 880.4
20260507033045 53 119 3.5 6.1 0.00 0.01 0.01 77 880.3
20260507031545 53 109 1.7 4.3 0.00 0.01 0.01 78 880.3
20260507030044 53 101 2.6 6.1 0.00 0.01 0.01 80 880.2
20260507024547 53 110 2.6 6.1 0.00 0.01 0.01 86 880.1
20260507023043 55 114 2.6 5.2 0.00 0.01 0.01 83 880.0
20260507021549 57 108 2.6 5.2 0.00 0.01 0.01 80 880.0
20260507020059 58 128 4.3 7.8 0.00 0.01 0.01 78 879.9
20260507014601 59 119 4.3 8.7 0.00 0.01 0.01 76 879.8
20260507013047 60 145 5.2 7.8 0.00 0.01 0.01 74 879.8
20260507011551 60 100 6.1 10.4 0.00 0.01 0.01 72 879.8
20260507010045 61 167 5.2 8.7 0.00 0.01 0.01 71 879.8
20260507004540 61 132 6.1 10.4 0.00 0.01 0.01 69 879.8
20260507003039 61 123 5.2 12.2 0.00 0.01 0.01 69 879.8
20260507001555 62 109 6.1 12.2 0.00 0.01 0.01 67 879.7
20260507000048 62 129 6.1 11.3 0.00 0.01 0.01 66 879.5
20260506234549 62 136 7.0 13.9 0.00 0.01 0.01 65 879.4